Probability
9 6 4 2 3 3 3 2 2 1 2 2 1 1 1 1 0 0 1 2 2 3 6 10 8 5 3 5 7 8 6 3 1 1 1 1 1 0 0 0 0 0 0
8 7 5 4 3 3 2 1 1 0 1 1 0 0 1 1 0 0 0 1 3 3 6 10 13 10 8 7 7 7 7 4 3 3 2 1 0 0 0 0 0 0 0
6 7 7 6 4 2 1 0 0 0 0 0 0 0 0 0 0 0 0 0 1 2 3 8 14 16 14 12 9 7 7 6 6 5 4 3 1 0 0 0 0 0 0
2 4 6 5 3 2 0 0 0 0 0 0 0 0 0 0 0 0 0 0 0 0 0 3 9 13 14 13 10 6 6 8 7 6 5 5 3 1 0 0 0 0 0
1 2 3 2 1 1 0 0 0 0 0 0 0 0 0 0 0 0 0 0 0 0 0 1 3 6 8 9 9 7 7 8 7 5 4 4 3 2 1 0 0 0 0
0 1 1 0 0 0 0 0 0 0 0 0 0 0 0 0 0 0 0 0 0 0 0 0 0 2 4 6 7 7 6 7 6 3 2 2 3 2 1 0 0 0 0
0 0 0 0 0 0 0 0 0 0 0 0 0 0 0 0 0 0 0 0 0 0 0 0 0 0 2 4 5 5 5 6 6 3 1 1 2 2 1 0 0 0 0
0 0 0 0 0 0 0 0 0 0 0 0 0 0 0 0 0 0 0 0 0 0 0 0 0 0 1 2 2 3 5 7 7 4 2 1 2 2 1 0 0 0 0
0 0 0 0 0 0 0 0 0 0 0 0 0 0 0 0 0 0 0 0 0 0 0 0 0 0 0 1 1 2 4 7 7 5 5 3 1 1 1 1 0 0 0
0 0 0 0 0 0 0 0 0 0 0 0 0 0 0 0 0 0 0 0 0 0 0 0 0 0 0 0 0 0 2 3 4 5 7 6 3 1 0 0 0 0 0
0 0 0 0 0 0 0 0 0 0 0 0 0 0 0 0 0 0 0 0 0 0 0 0 0 0 0 0 0 0 0 1 1 3 5 7 5 2 1 0 0 0 0
0 0 0 0 0 0 0 0 0 0 0 0 0 0 0 0 0 0 0 0 0 0 0 0 0 0 0 0 0 0 0 0 0 1 2 4 5 3 1 0 0 0 0
0 0 0 0 0 0 0 0 0 0 0 0 0 0 0 0 0 0 0 0 0 0 0 0 0 0 0 0 0 0 0 0 0 0 0 1 2 2 1 0 0 0 0
0 0 0 0 0 0 0 0 0 0 0 0 0 0 0 0 0 0 0 0 0 0 0 0 0 0 0 0 1 0 0 0 0 0 0 0 1 1 0 0 1 0 0
0 0 0 0 0 0 0 0 0 0 0 0 0 0 0 0 0 0 0 0 0 0 0 0 0 0 0 0 0 0 0 0 0 0 0 0 0 0 0 0 0 0 0
0 0 0 0 0 0 0 0 0 0 0 0 0 0 0 0 0 0 0 0 0 0 0 0 0 0 0 0 0 0 0 0 0 0 0 0 0 0 0 0 0 0 0
0 0 0 0 0 0 0 0 0 0 0 0 0 0 0 0 0 0 0 0 0 0 0 0 0 0 0 0 0 0 0 0 0 0 0 0 0 0 0 0 0 0 0
0 0 0 0 0 0 0 0 0 0 0 0 0 0 0 0 0 0 0 0 0 0 0 0 0 0 0 0 0 0 0 0 0 0 0 0 0 0 0 0 0 0 0
0 0 0 0 0 0 0 0 0 0 0 0 0 0 0 0 0 0 0 0 0 0 0 0 0 0 0 0 1 1 0 0 0 0 0 0 0 0 0 0 0 0 0
0 0 0 0 0 0 0 0 0 0 0 0 0 0 0 0 0 0 0 0 0 0 0 0 0 0 0 1 2 2 1 0 0 0 0 0 0 0 0 0 0 0 0
0 0 0 0 0 0 0 0 0 0 0 0 0 0 0 0 0 0 0 0 0 0 0 0 0 0 0 1 3 2 1 0 0 0 0 0 0 0 0 0 0 0 0
0 0 0 0 0 0 0 0 0 0 0 0 0 0 0 0 0 0 0 0 0 0 0 0 0 0 0 2 4 3 1 0 0 0 0 0 0 0 0 0 0 0 0
0 0 0 0 0 0 0 0 0 0 0 0 0 0 0 0 0 0 0 0 0 0 0 0 0 0 0 2 4 5 3 1 0 0 0 0 0 0 0 0 0 0 0
0 0 0 0 0 0 0 0 0 0 0 0 0 0 0 0 0 0 0 0 0 0 0 0 0 0 0 1 4 6 5 1 0 0 0 0 0 0 0 0 0 0 0
0 0 0 0 0 0 0 0 0 0 0 0 0 0 0 0 0 0 0 0 0 0 0 0 0 0 0 0 3 6 5 2 0 0 0 0 0 0 0 0 0 0 0
0 0 0 0 0 0 0 0 0 0 0 0 0 0 0 0 0 0 0 0 0 0 0 0 0 0 0 0 2 5 5 1 0 0 0 0 0 0 0 0 0 0 0
Wind_Speed
3 3 2 2 2 2 3 3 4 5 5 6 6 7 8 7 7 6 4 11 12 12 13 14 16 20 20 20 20 20 20 19 17 15 15 15 15 16 15 15 14 13 13
2 2 2 2 2 2 3 3 4 4 4 4 6 7 7 7 7 7 6 8 13 13 13 13 14 18 20 21 21 20 20 21 19 17 16 16 16 16 16 15 15 14 13
2 2 1 2 2 2 2 2 3 3 4 5 6 7 6 8 8 8 7 6 7 12 15 14 14 15 18 20 21 21 20 20 20 19 18 17 16 16 16 16 15 15 14
3 2 2 2 2 2 1 2 2 3 4 5 5 5 6 6 9 9 8 7 6 7 11 16 14 14 16 19 22 21 21 21 20 21 21 20 18 17 17 16 16 15 14
4 2 2 2 2 1 1 2 2 2 4 5 5 6 6 7 8 9 9 10 9 8 8 11 15 15 17 19 21 21 21 21 21 22 23 22 21 20 18 17 17 16 15
5 3 2 3 2 1 2 2 3 3 4 5 5 6 5 7 6 8 9 9 9 10 10 9 8 11 17 18 19 20 21 22 22 23 23 24 23 22 20 19 18 17 17
5 3 3 3 2 2 2 3 2 3 3 2 3 4 5 7 8 7 7 7 9 10 9 9 8 7 7 16 19 20 22 23 23 23 24 24 24 23 22 21 20 19 18
5 4 3 3 3 2 3 2 1 2 2 2 2 2 3 4 3 5 5 7 8 6 8 10 10 10 8 7 10 20 22 23 24 24 24 23 23 23 22 22 21 20 20
5 4 4 3 3 2 2 2 2 2 2 2 2 2 2 3 4 2 2 4 5 5 7 7 10 11 11 9 8 14 21 22 25 26 24 23 22 22 22 23 22 22 21
5 4 4 3 3 2 2 3 1 1 2 2 2 2 3 3 2 4 3 2 3 5 6 6 8 9 10 8 10 13 18 20 23 24 23 22 22 22 22 22 23 23 22
4 4 3 3 3 2 2 2 2 1 1 2 1 1 2 2 3 3 4 4 3 3 4 6 6 7 9 9 8 12 17 17 19 21 21 21 21 22 22 22 23 23 23
3 4 4 3 3 2 3 2 2 2 1 2 2 2 1 1 1 2 3 4 4 4 4 4 5 6 7 8 11 14 16 16 16 17 19 20 20 21 22 22 23 23 23
3 4 3 3 3 3 3 2 2 2 2 2 2 2 2 2 2 2 2 3 4 3 3 2 3 4 5 6 7 13 14 15 15 15 16 17 18 19 20 21 21 21 21
4 5 5 4 4 4 4 2 2 2 2 2 3 3 2 3 3 2 2 2 3 3 2 3 2 2 2 3 6 10 8 13 14 14 15 15 16 17 18 18 18 18 18
5 5 5 5 5 4 4 3 3 3 3 3 3 3 3 3 3 3 3 3 2 3 3 3 2 3 3 2 4 5 6 9 12 13 13 14 15 16 16 16 16 16 16
5 5 6 6 5 5 4 4 4 4 4 4 3 4 4 3 3 3 3 4 4 3 4 2 2 3 4 3 1 3 4 8 11 12 13 13 14 15 15 15 15 15 15
6 6 6 6 6 6 5 4 5 5 5 5 5 5 5 4 3 3 3 4 4 4 5 4 2 3 3 2 1 1 1 2 4 9 11 12 12 13 13 13 14 14 14
7 7 7 7 8 7 6 6 7 6 6 7 7 6 7 5 5 4 4 5 5 5 5 5 3 2 2 1 1 2 2 2 3 6 8 9 10 11 11 11 12 12 12
7 7 7 8 8 8 8 8 8 8 8 8 8 8 8 7 7 5 5 5 5 5 5 5 4 2 2 1 2 3 3 3 3 5 6 7 7 8 9 10 10 10 11
7 8 8 8 9 9 9 9 8 9 9 8 8 8 9 9 9 8 6 7 6 5 5 5 5 3 3 2 3 4 3 2 2 3 5 5 7 7 7 8 9 10 10
8 8 8 9 9 8 9 9 9 9 9 9 9 9 9 11 13 10 7 7 6 5 5 5 5 4 3 3 4 4 5 4 2 2 4 3 4 4 3 5 7 9 10
8 8 9 9 9 9 11 14 12 9 9 10 11 10 10 12 14 15 16 14 11 8 8 6 5 6 6 5 5 5 5 5 4 4 4 3 3 3 2 2 4 8 10
8 9 9 9 10 11 15 16 17 11 10 11 11 10 10 10 11 10 13 16 15 16 14 9 9 8 7 6 7 8 7 6 4 6 4 3 3 3 2 3 5 7 9
8 8 9 10 10 12 14 15 16 12 10 11 12 12 12 12 10 10 10 11 11 11 11 11 10 9 8 7 7 8 7 7 5 5 4 4 3 2 2 3 5 7 10
8 8 9 10 11 12 14 14 13 8 9 11 11 12 12 13 14 14 12 12 11 10 11 13 13 12 12 11 8 6 8 9 6 4 2 5 4 3 2 3 6 9 10
8 9 10 10 10 12 13 14 11 6 8 9 9 10 14 15 14 15 13 12 13 11 10 9 10 12 11 11 12 10 9 9 6 5 4 5 5 5 4 2 3 4 7
Wind_Direction
246 239 245 246 249 252 251 248 244 241 237 231 225 225 227 225 225 223 226 233 236 237 242 243 233 225 218 212 206 204 202 203 200 198 196 194 191 190 189 187 185 183 182
266 254 246 247 251 248 248 249 250 247 245 241 240 234 233 230 229 225 224 234 239 239 239 243 237 227 222 218 213 208 205 205 202 200 200 198 194 193 193 191 190 188 187
308 283 266 263 262 256 254 257 260 256 256 249 247 245 242 240 236 232 229 224 230 238 238 237 235 228 223 221 219 215 211 208 204 201 201 200 197 195 196 194 193 192 190
352 334 306 294 295 283 265 264 260 261 257 252 252 251 246 243 241 237 232 226 220 229 237 235 232 227 225 224 224 221 217 213 207 203 202 201 200 198 197 197 196 194 192
4 359 330 316 319 306 284 275 264 249 262 260 257 253 245 242 242 242 237 231 226 224 227 234 233 227 225 227 228 226 225 220 213 208 205 203 202 201 198 198 197 196 194
5 9 354 341 340 323 307 294 278 260 256 262 270 267 252 245 240 237 238 234 229 228 225 224 226 229 226 225 227 228 229 227 222 215 210 207 205 203 201 199 199 198 197
2 13 5 352 344 306 288 293 282 280 271 252 263 280 270 249 241 238 233 233 233 231 225 221 218 219 223 223 224 225 228 229 228 222 215 210 207 204 202 201 200 199 199
356 8 7 349 335 302 295 293 271 284 281 241 230 273 307 312 273 243 233 232 235 232 229 223 218 216 218 217 219 221 224 226 228 225 218 213 210 205 203 203 202 201 201
344 352 355 352 344 322 288 283 260 245 276 283 230 227 250 276 311 303 249 241 240 233 232 225 222 219 216 215 219 222 223 223 226 225 220 214 210 206 204 204 204 203 203
332 338 347 357 357 350 318 296 274 243 256 285 289 245 243 250 276 308 310 273 258 248 241 233 228 222 216 214 217 217 222 221 220 222 220 214 209 205 204 205 205 205 205
320 327 334 349 352 346 334 321 314 271 226 251 273 285 282 262 241 259 289 309 309 271 250 236 230 223 216 215 216 219 219 217 215 217 216 213 209 206 204 205 207 207 206
310 318 324 333 329 326 326 324 309 286 252 244 251 250 243 262 273 259 277 297 300 291 274 247 230 223 215 211 215 215 215 215 212 211 211 210 208 206 205 206 208 209 208
294 299 310 305 302 303 305 313 316 300 270 255 251 246 239 237 237 241 263 285 292 293 294 277 243 233 222 209 214 215 216 212 211 208 206 205 204 203 203 204 207 209 208
269 279 286 285 284 291 299 305 296 291 276 268 265 255 250 250 236 229 237 272 299 297 292 293 298 261 247 223 220 213 218 211 207 204 203 201 201 200 200 200 202 204 205
268 273 280 284 282 281 280 283 274 282 287 274 271 266 255 253 245 240 236 230 247 289 297 300 314 348 331 274 235 216 211 207 203 199 198 197 198 197 196 195 197 199 201
268 277 280 280 280 275 266 254 256 263 267 269 264 268 264 259 255 245 237 234 227 236 266 290 304 318 321 306 259 218 216 202 200 194 193 192 192 191 191 192 194 196 198
273 273 275 278 280 277 267 248 245 247 248 256 262 261 265 265 261 252 239 234 232 227 251 272 273 294 304 295 16 81 116 147 172 181 180 180 181 181 184 187 190 192 194
273 273 275 275 275 275 268 260 261 256 241 245 250 250 258 262 258 254 242 236 234 230 238 264 274 285 291 254 130 102 84 93 110 141 154 159 165 169 174 180 185 188 190
274 276 274 274 275 274 271 266 263 263 253 244 240 239 246 248 254 251 245 241 237 237 231 244 259 254 258 192 141 118 106 98 95 113 119 131 146 157 166 174 179 183 186
271 273 272 271 272 273 272 270 267 266 264 258 244 236 237 237 242 245 246 240 236 236 233 235 244 242 232 195 168 157 149 135 122 109 104 105 119 131 152 167 176 180 184
272 270 274 274 271 270 268 264 260 263 262 264 258 246 238 236 236 236 237 234 229 229 227 227 231 230 221 197 188 168 160 142 122 134 124 107 110 112 126 154 169 174 176
276 275 275 275 274 271 270 268 268 265 261 262 264 258 248 249 247 243 241 238 228 225 225 223 223 223 224 214 189 171 157 160 166 158 136 111 100 100 81 100 149 163 164
278 279 276 274 273 271 268 270 271 269 261 259 259 259 259 252 239 233 237 243 243 237 225 220 225 222 220 214 198 184 178 167 155 154 137 116 98 92 55 63 121 145 150
277 279 279 277 275 275 271 268 271 270 262 258 255 252 253 254 245 229 230 235 239 242 235 230 230 228 225 219 206 198 175 145 120 143 137 123 113 95 62 52 76 119 131
280 281 280 279 278 280 277 273 271 268 262 261 257 253 249 250 245 231 230 235 237 241 242 235 229 229 225 218 199 181 171 164 159 154 136 124 127 108 76 47 51 82 106
279 283 283 279 275 277 277 276 273 264 264 265 262 256 249 246 243 233 231 231 234 234 235 234 228 229 225 219 203 195 184 177 161 153 161 133 137 140 121 74 47 62 83